Location: Unspecified
(0.0000°N, 0.0000°E)
Time: 18:06:37
(UTC+00:00)

Vanguard 1 - Pass Details

Date: 01 October 2020
Orbit: 650 x 3833 km, 34.3° (Epoch: 26 October)

Event Time Altitude Azimuth Distance (km) Brightness Sun altitude
Rises 16:19:07 0° 233° (SW) 7,887 15.6 22.5°
Reaches altitude 10° 16:24:51 10° 233° (SW) 6,661 15.4 21.1°
Maximum altitude 16:45:22 88° 322° (NW) 2,493 12.4 16.0°
Drops below altitude 10° 16:56:26 10° 52° (NE) 3,892 12.7 13.2°
Sets 16:58:52 0° 52° (NE) 4,576 13.0 12.6°
